OBJECT Z, 67386

Orbit data source: Space-Track

You're viewing an Uncataloged Satellite

Recently launched and/or uncataloged satellites may have evolving metadata. Metadata may include but not limited to: Owner, Maufacturer, Bus, Motor, and Mission.

OBJECT Z, 67386 is a satellite in SSO that was launched on Sun, 11 Jan 2026 UTC via an FALCON 9 launch vehicle from the Air Force Western Test Range (AFWTR). Unknown objects in Earth's orbit typically refer to objects detected orbiting the Earth but have not yet been identified or cataloged. These objects could be anything from previously untracked satellites, spent rocket stages, debris from satellite collisions, or even natural meteoroids temporarily captured by Earth's gravity.

Loading next visibility...
Identifier
67386, 2026-004Z
Orbit
SSO
Country
Flag of TBDTBD
Related business
Manufacturer
Blue Canyon
Mission
Operational Commercial Weather
Bus & Motor
CUBESAT 6U, Unknown motor
Mass
~12 kg wet, ~12 kg dry
Launch date (UTC)
2026-01-11 (4 months ago)
Launch vehicle
FALCON 9
Launch site
Air Force Western Test Range (AFWTR)
Object type
Unknown
Shape & HBR
Box + 2 Pan, 0.2 m
Radar Cross Section
0.138 m²

Expand to show TLE details & history
Last TLE update: 12 hours ago

TLE from 12 hours ago
0 OBJECT Z
1 67386U 26004Z   26146.26038199  .00001781  00000-0  19636-3 0  9994
2 67386  97.7997 145.3285 0002693 161.4355 198.6961 14.88746959 20039
Epoch: 2026-05-26T06:14Z
TLE epoch observation values (Epoch: 2026-05-26T06:14:57.003Z)
Latitude
-0.00002°
Longitude
167.75462°
Altitude
606.667 km
Speed
7.555 km/s
True Right ascension
09h 41m 18s
True Declination
0° 00' 00"
Sunlit
Object was in daylight at epoch
Visualization orbit readout
Latitude
Unknown
Longitude
Unknown
Altitude
Unknown
Speed
Unknown
Apparent Right ascension
Unknown
Apparent Declination
Unknown
Sunlit
N/A
Visualization observer readout
Local Sidereal Time
03:34:39
Azimuth
Unknown
Elevation
Unknown
Doppler factor
Unknown
Orbital elements
Apogee altitude
600.753 km
Perigee altitude
596.995 km
Semi-major axis
6,977.011 km
Eccentricity
0.00027
Inclination
97.7997°
RAAN
145.3285°
Arg. of periapsis
161.4355°
True anomaly
198.68621°
Mean anomaly
198.6961°
Eccentric anomaly
198.69116°
Mean motion
3.72425 °/min
Orbital period
96.66 mins
BSTAR
0.00019636
Loading maneuver chart data...
Computing Atmospheric mass density...
Loading historical data...
Loading historical data...
Loading historical data...
Loading historical data...
Loading historical data...
Loading historical data...
Loading historical data...

Documentation

Showing up to 5 results
|